K4DNM Weather Reports


Display with metric or nautical units.
time (UTC)temp
F
wind
direction
speed
MPH
gust
MPH
rain 1hr
in
rain 24hr
in
rain mn
in
humidity
%
barometer
mb
20260904034312 80 157 1.0 3.0 0.00 0.00 0.00 83 1015.7
20260904033812 80 145 1.0 4.0 0.00 0.00 0.00 83 1015.7
20260904033308 80 200 2.0 4.0 0.00 0.00 0.00 83 1015.8
20260904032806 80 191 2.0 3.0 0.00 0.00 0.00 84 1015.7
20260904032306 81 289 0.0 2.0 0.00 0.00 0.00 83 1015.7
20260904031811 81 0 0.0 2.0 0.00 0.00 0.00 84 1015.8
20260904031257 81 0 0.0 2.0 0.00 0.00 0.00 83 1015.8
20260904031016 81 0 1.0 4.0 0.00 0.00 0.00 82 1015.7
20260904030858 81 0 1.0 4.0 0.00 0.00 0.00 82 1015.7
20260904030253 81 0 1.0 5.0 0.00 0.00 0.00 82 1015.7
20260904025748 82 203 1.0 5.0 0.00 0.00 0.00 82 1015.8
20260904025516 82 163 1.0 5.0 0.00 0.00 0.00 82 1015.9
20260904025352 82 163 1.0 5.0 0.00 0.00 0.00 82 1015.9
20260904024745 82 143 1.0 3.0 0.00 0.00 0.00 82 1015.8
20260904024247 82 203 1.0 4.0 0.00 0.00 0.00 82 1015.8
20260904023743 82 202 1.0 4.0 0.00 0.00 0.00 82 1015.9
20260904023243 82 0 1.0 3.0 0.00 0.00 0.00 81 1015.9
20260904022957 82 204 1.0 3.0 0.00 0.00 0.00 81 1015.9
20260904022844 82 204 1.0 3.0 0.00 0.00 0.00 81 1015.9
20260904022238 83 159 1.0 4.0 0.00 0.00 0.00 81 1015.9
20260904021749 83 0 2.0 4.0 0.00 0.00 0.00 80 1015.9
20260904021236 83 190 2.0 4.0 0.00 0.00 0.00 80 1015.8
20260904020955 83 213 2.0 4.0 0.00 0.00 0.00 80 1015.8
20260904020838 83 213 2.0 4.0 0.00 0.00 0.00 80 1015.8
20260904020233 83 171 1.0 5.0 0.00 0.00 0.00 80 1015.7
20260904015731 83 138 1.0 5.0 0.00 0.00 0.00 80 1015.8
20260904015724 83 172 2.0 5.0 0.00 0.00 0.00 79 1015.7
20260904015334 83 172 2.0 5.0 0.00 0.00 0.00 79 1015.7
20260904014730 83 144 2.0 5.0 0.00 0.00 0.00 79 1015.6
20260904014232 83 137 2.0 5.0 0.00 0.00 0.00 79 1015.5
20260904013730 83 171 2.0 4.0 0.00 0.00 0.00 79 1015.6
20260904013227 83 204 1.0 4.0 0.00 0.00 0.00 80 1015.5
20260904012727 82 0 0.0 2.0 0.00 0.00 0.00 80 1015.3
20260904012224 82 0 0.0 2.0 0.00 0.00 0.00 80 1015.2
20260904011722 82 218 0.0 1.0 0.00 0.00 0.00 80 1015.1
20260904011224 83 0 0.0 4.0 0.00 0.00 0.00 80 1015.1
20260904010940 83 0 1.0 4.0 0.00 0.00 0.00 79 1015.0
20260904010825 83 0 1.0 4.0 0.00 0.00 0.00 79 1015.0
20260904010217 83 193 0.0 2.0 0.00 0.00 0.00 80 1014.9
20260904005717 83 0 0.0 1.0 0.00 0.00 0.00 79 1014.8
20260904005442 83 0 0.0 0.0 0.00 0.00 0.00 78 1014.7
20260904005320 83 0 0.0 0.0 0.00 0.00 0.00 78 1014.7
20260904004711 83 0 0.0 1.0 0.00 0.00 0.00 78 1014.7
20260904004424 83 0 0.0 2.0 0.00 0.00 0.00 79 1014.6
20260904004306 83 0 0.0 2.0 0.00 0.00 0.00 79 1014.6
20260904003656 83 0 0.0 2.0 0.00 0.00 0.00 78 1014.4
20260904003208 84 0 0.0 2.0 0.00 0.00 0.00 79 1014.4
20260904002653 84 202 0.0 1.0 0.00 0.00 0.00 77 1014.4
20260904002151 84 0 0.0 2.0 0.00 0.00 0.00 76 1014.4
20260904001651 84 0 1.0 2.0 0.00 0.00 0.00 76 1014.3
20260904001149 85 0 1.0 2.0 0.00 0.00 0.00 76 1014.2
20260904000912 85 178 0.0 2.0 0.00 0.00 0.00 76 1014.1
20260904000752 85 178 0.0 2.0 0.00 0.00 0.00 76 1014.1
20260904000410 85 0 0.0 1.0 0.00 0.00 0.00 75 1014.1
20260904000250 85 0 0.0 1.0 0.00 0.00 0.00 75 1014.1
20260903235907 86 0 0.0 1.0 0.00 0.00 0.00 74 1014.1
20260903235748 86 0 0.0 1.0 0.00 0.00 0.00 74 1014.1
20260903235144 86 263 0.0 2.0 0.00 0.00 0.00 72 1014.0
20260903234644 87 0 0.0 2.0 0.00 0.00 0.00 71 1014.0
20260903234140 87 0 0.0 2.0 0.00 0.00 0.00 71 1013.9
20260903233640 87 230 0.0 3.0 0.00 0.00 0.00 70 1013.9
20260903233137 88 171 1.0 3.0 0.00 0.00 0.00 70 1013.9
20260903232635 88 217 0.0 2.0 0.00 0.00 0.00 68 1013.9
20260903232135 89 204 1.0 3.0 0.00 0.00 0.00 68 1013.9
20260903231632 89 179 1.0 4.0 0.00 0.00 0.00 67 1013.9
20260903231354 89 185 1.0 4.0 0.00 0.00 0.00 67 1013.9
20260903231237 89 185 1.0 4.0 0.00 0.00 0.00 67 1013.9
20260903230856 89 180 1.0 3.0 0.00 0.00 0.00 67 1013.9
20260903230734 89 180 1.0 3.0 0.00 0.00 0.00 67 1013.9
20260903230402 89 207 1.0 4.0 0.00 0.00 0.00 67 1014.0
20260903230246 89 207 1.0 4.0 0.00 0.00 0.00 67 1014.0
20260903225626 89 163 1.0 4.0 0.00 0.00 0.00 67 1014.0
20260903225125 90 260 1.0 3.0 0.00 0.00 0.00 68 1014.0
20260903224624 90 249 1.0 3.0 0.00 0.00 0.00 68 1014.0
20260903224605 91 205 1.0 3.0 0.00 0.00 0.00 66 1013.9
20260903224227 91 205 1.0 3.0 0.00 0.00 0.00 66 1013.9
20260903223623 91 207 1.0 3.0 0.00 0.00 0.00 66 1013.9
20260903223124 91 273 1.0 4.0 0.00 0.00 0.00 65 1013.9
20260903222625 91 140 2.0 4.0 0.00 0.00 0.00 65 1013.9
20260903222124 92 160 2.0 5.0 0.00 0.00 0.00 64 1013.9
20260903221624 92 175 2.0 6.0 0.00 0.00 0.00 63 1013.9
20260903221607 92 199 2.0 6.0 0.00 0.00 0.00 62 1013.9
20260903221225 92 199 2.0 6.0 0.00 0.00 0.00 62 1013.9
20260903220620 93 186 2.0 6.0 0.00 0.00 0.00 62 1014.0
20260903220118 93 157 2.0 6.0 0.00 0.00 0.00 61 1014.0
20260903215620 94 196 2.0 6.0 0.00 0.00 0.00 60 1014.0
20260903215601 94 186 2.0 8.0 0.00 0.00 0.00 60 1014.0
20260903215220 94 186 2.0 8.0 0.00 0.00 0.00 60 1014.0
20260903214613 94 167 2.0 8.0 0.00 0.00 0.00 59 1014.0
20260903214112 95 205 2.0 8.0 0.00 0.00 0.00 59 1014.1
20260903213840 95 203 2.0 5.0 0.00 0.00 0.00 57 1014.0
20260903213714 95 203 2.0 5.0 0.00 0.00 0.00 57 1014.0
20260903213109 95 140 2.0 4.0 0.00 0.00 0.00 58 1014.1
20260903212608 95 0 2.0 5.0 0.00 0.00 0.00 58 1014.1
20260903212107 96 213 2.0 5.0 0.00 0.00 0.00 58 1014.0
20260903211827 96 209 2.0 5.0 0.00 0.00 0.00 58 1014.1
20260903211713 96 209 2.0 5.0 0.00 0.00 0.00 58 1014.1
20260903211106 96 180 2.0 4.0 0.00 0.00 0.00 56 1014.1
20260903210828 96 195 2.0 5.0 0.00 0.00 0.00 58 1014.0
20260903210713 96 195 2.0 5.0 0.00 0.00 0.00 58 1014.0
20260903210106 96 213 3.0 6.0 0.00 0.00 0.00 56 1013.9
20260903205614 96 160 2.0 6.0 0.00 0.00 0.00 57 1013.9
20260903205100 97 228 2.0 6.0 0.00 0.00 0.00 56 1013.9
20260903204600 97 0 2.0 6.0 0.00 0.00 0.00 57 1013.9
20260903204057 97 231 2.0 4.0 0.00 0.00 0.00 55 1014.0
20260903203804 97 215 2.0 4.0 0.00 0.00 0.00 54 1014.1
20260903203655 97 188 2.0 4.0 0.00 0.00 0.00 54 1014.0
20260903203205 97 215 2.0 4.0 0.00 0.00 0.00 54 1014.1
20260903202556 98 192 2.0 5.0 0.00 0.00 0.00 52 1014.1
20260903202055 98 185 2.0 5.0 0.00 0.00 0.00 54 1014.2
20260903201552 98 233 2.0 4.0 0.00 0.00 0.00 52 1014.2
20260903201054 98 177 2.0 6.0 0.00 0.00 0.00 53 1014.2
20260903200550 98 164 2.0 6.0 0.00 0.00 0.00 57 1014.3
20260903200104 98 224 2.0 6.0 0.00 0.00 0.00 52 1014.3
20260903195601 98 206 2.0 6.0 0.00 0.00 0.00 54 1014.4
20260903195306 98 205 2.0 6.0 0.00 0.00 0.00 51 1014.4
20260903195150 98 205 2.0 6.0 0.00 0.00 0.00 51 1014.4
20260903194544 99 172 1.0 4.0 0.00 0.00 0.00 54 1014.5
20260903194044 99 283 1.0 4.0 0.00 0.00 0.00 55 1014.6
20260903193541 99 205 1.0 3.0 0.00 0.00 0.00 52 1014.7
20260903193043 98 0 1.0 4.0 0.00 0.00 0.00 55 1014.7
20260903192804 98 220 2.0 5.0 0.00 0.00 0.00 52 1014.7
20260903192644 98 220 2.0 5.0 0.00 0.00 0.00 52 1014.7
20260903192521 99 179 2.0 5.0 0.00 0.00 0.00 52 1014.8
20260903192142 99 179 2.0 5.0 0.00 0.00 0.00 52 1014.8
20260903191535 100 135 1.0 4.0 0.00 0.00 0.00 51 1014.8
20260903191035 99 257 1.0 3.0 0.00 0.00 0.00 53 1014.8
20260903190534 100 358 1.0 3.0 0.00 0.00 0.00 52 1014.8
20260903190032 99 308 1.0 2.0 0.00 0.00 0.00 53 1015.0
20260903185529 99 270 1.0 3.0 0.00 0.00 0.00 58 1015.0
20260903185028 98 172 1.0 3.0 0.00 0.00 0.00 55 1015.1
20260903184527 97 0 1.0 3.0 0.00 0.00 0.00 54 1015.2
20260903184025 97 0 1.0 4.0 0.00 0.00 0.00 55 1015.2
20260903184001 97 181 2.0 7.0 0.00 0.00 0.00 53 1015.3
20260903183630 97 181 2.0 7.0 0.00 0.00 0.00 53 1015.3
20260903183025 97 205 2.0 7.0 0.00 0.00 0.00 57 1015.3
20260903182523 98 222 1.0 6.0 0.00 0.00 0.00 52 1015.3
20260903182020 97 245 1.0 6.0 0.00 0.00 0.00 53 1015.4
20260903181520 97 205 2.0 7.0 0.00 0.00 0.00 55 1015.4
20260903181020 97 76 2.0 7.0 0.00 0.00 0.00 53 1015.4
20260903180518 97 171 1.0 7.0 0.00 0.00 0.00 54 1015.4
20260903180017 97 169 2.0 5.0 0.00 0.00 0.00 54 1015.4
20260903175516 97 96 2.0 5.0 0.00 0.00 0.00 56 1015.4
20260903175235 97 148 2.0 5.0 0.00 0.00 0.00 52 1015.5
20260903175118 97 148 2.0 5.0 0.00 0.00 0.00 52 1015.5
20260903174513 97 191 2.0 4.0 0.00 0.00 0.00 55 1015.6
20260903174230 97 175 1.0 4.0 0.00 0.00 0.00 53 1015.7
20260903174117 97 175 1.0 4.0 0.00 0.00 0.00 53 1015.7
20260903173511 97 148 1.0 3.0 0.00 0.00 0.00 55 1015.7
20260903173011 97 308 1.0 3.0 0.00 0.00 0.00 55 1015.7
20260903172745 97 288 1.0 3.0 0.00 0.00 0.00 57 1015.8
20260903172626 97 288 1.0 3.0 0.00 0.00 0.00 57 1015.8
20260903172230 97 143 1.0 4.0 0.00 0.00 0.00 56 1015.8
20260903172005 97 143 1.0 4.0 0.00 0.00 0.00 56 1015.8
20260903171500 96 230 2.0 5.0 0.00 0.00 0.00 57 1015.9
20260903170958 97 164 2.0 5.0 0.00 0.00 0.00 55 1015.9
20260903170500 97 250 1.0 4.0 0.00 0.00 0.00 59 1016.0
20260903165957 97 239 2.0 4.0 0.00 0.00 0.00 56 1016.0
20260903165454 97 0 1.0 4.0 0.00 0.00 0.00 60 1016.1
20260903165207 98 0 1.0 2.0 0.00 0.00 0.00 55 1016.1
20260903165048 98 212 1.0 2.0 0.00 0.00 0.00 56 1016.1
20260903164557 98 0 1.0 2.0 0.00 0.00 0.00 55 1016.1
20260903163950 97 278 1.0 3.0 0.00 0.00 0.00 55 1016.2
20260903163449 96 320 1.0 4.0 0.00 0.00 0.00 59 1016.3
20260903162947 96 140 1.0 4.0 0.00 0.00 0.00 58 1016.3
20260903162713 96 0 1.0 4.0 0.00 0.00 0.00 59 1016.3
20260903162550 96 0 1.0 4.0 0.00 0.00 0.00 59 1016.3
20260903161944 96 264 1.0 4.0 0.00 0.00 0.00 62 1016.3
20260903161442 96 122 1.0 4.0 0.00 0.00 0.00 63 1016.3
20260903160942 96 186 1.0 4.0 0.00 0.00 0.00 60 1016.3
20260903160439 95 0 1.0 3.0 0.00 0.00 0.00 60 1016.4
20260903160204 95 72 1.0 3.0 0.00 0.00 0.00 61 1016.4
20260903160040 95 72 1.0 3.0 0.00 0.00 0.00 61 1016.4
20260903155436 96 145 1.0 2.0 0.00 0.00 0.00 60 1016.4
20260903154933 96 260 1.0 2.0 0.00 0.00 0.00 59 1016.5
20260903154433 96 261 1.0 2.0 0.00 0.00 0.00 63 1016.5
20260903153933 96 0 1.0 3.0 0.00 0.00 0.00 60 1016.5
20260903153434 96 320 1.0 3.0 0.00 0.00 0.00 62 1016.5
20260903152935 96 348 1.0 2.0 0.00 0.00 0.00 63 1016.5
20260903152430 95 28 1.0 2.0 0.00 0.00 0.00 63 1016.6
20260903152153 95 341 1.0 2.0 0.00 0.00 0.00 64 1016.6
20260903152036 95 341 1.0 2.0 0.00 0.00 0.00 64 1016.6
20260903151427 95 350 1.0 2.0 0.00 0.00 0.00 63 1016.6
20260903150926 94 0 1.0 2.0 0.00 0.00 0.00 65 1016.6
20260903150424 94 0 1.0 3.0 0.00 0.00 0.00 64 1016.6
20260903150151 93 210 1.0 3.0 0.00 0.00 0.00 66 1016.6
20260903150028 93 210 1.0 3.0 0.00 0.00 0.00 66 1016.6
20260903145422 93 283 1.0 3.0 0.00 0.00 0.00 67 1016.6
20260903144920 92 0 1.0 4.0 0.00 0.00 0.00 66 1016.5
20260903144418 92 191 1.0 4.0 0.00 0.00 0.00 66 1016.6
20260903143917 92 0 1.0 3.0 0.00 0.00 0.00 67 1016.6
20260903143416 92 256 1.0 3.0 0.00 0.00 0.00 67 1016.5
20260903142913 92 343 0.0 3.0 0.00 0.00 0.00 67 1016.4
20260903142413 91 240 1.0 3.0 0.00 0.00 0.00 69 1016.4
20260903141913 91 141 1.0 3.0 0.00 0.00 0.00 68 1016.4
20260903141410 92 261 1.0 3.0 0.00 0.00 0.00 67 1016.4
20260903140908 91 0 1.0 4.0 0.00 0.00 0.00 69 1016.3
20260903140408 91 320 1.0 4.0 0.00 0.00 0.00 68 1016.3
20260903135910 91 266 0.0 3.0 0.00 0.00 0.00 68 1016.4
20260903135854 90 219 0.0 3.0 0.00 0.00 0.00 68 1016.3
20260903135512 90 219 0.0 3.0 0.00 0.00 0.00 68 1016.3
20260903134909 89 285 1.0 3.0 0.00 0.00 0.00 69 1016.2
20260903134403 89 0 1.0 3.0 0.00 0.00 0.00 72 1016.2
20260903133902 89 0 1.0 4.0 0.00 0.00 0.00 72 1016.2
20260903133627 89 234 1.0 4.0 0.00 0.00 0.00 72 1016.2
20260903133506 89 234 1.0 4.0 0.00 0.00 0.00 72 1016.2
20260903132859 90 242 1.0 3.0 0.00 0.00 0.00 69 1016.3
20260903132355 89 0 0.0 2.0 0.00 0.00 0.00 70 1016.3
20260903131856 89 0 0.0 2.0 0.00 0.00 0.00 71 1016.3
20260903131353 88 0 0.0 2.0 0.00 0.00 0.00 72 1016.4
20260903130852 88 305 0.0 3.0 0.00 0.00 0.00 72 1016.4
20260903130351 87 0 0.0 3.0 0.00 0.00 0.00 75 1016.4
20260903130109 87 232 0.0 3.0 0.00 0.00 0.00 74 1016.4
20260903125956 87 232 0.0 3.0 0.00 0.00 0.00 74 1016.4
20260903125349 87 75 0.0 3.0 0.00 0.00 0.00 75 1016.4
20260903124847 86 273 0.0 3.0 0.00 0.00 0.00 75 1016.4
20260903124610 85 0 0.0 2.0 0.00 0.00 0.00 77 1016.4
20260903124449 85 0 0.0 2.0 0.00 0.00 0.00 77 1016.4
20260903123846 85 98 0.0 2.0 0.00 0.00 0.00 76 1016.5
20260903123344 84 279 0.0 2.0 0.00 0.00 0.00 79 1016.5
20260903122842 83 0 0.0 3.0 0.00 0.00 0.00 80 1016.5
20260903122338 83 10 0.0 3.0 0.00 0.00 0.00 81 1016.5
20260903121851 82 0 0.0 2.0 0.00 0.00 0.00 82 1016.5
20260903121827 82 220 0.0 2.0 0.00 0.00 0.00 83 1016.5
20260903121441 82 220 0.0 2.0 0.00 0.00 0.00 83 1016.5
20260903120836 81 0 0.0 2.0 0.00 0.00 0.00 84 1016.5
20260903120333 80 0 0.0 2.0 0.00 0.00 0.00 85 1016.5
20260903120105 79 193 0.0 1.0 0.00 0.00 0.00 88 1016.5
20260903115938 79 193 0.0 1.0 0.00 0.00 0.00 88 1016.5
20260903115332 78 0 0.0 0.0 0.00 0.00 0.00 92 1016.4
20260903114829 77 0 0.0 2.0 0.00 0.00 0.00 94 1016.5
20260903114327 76 206 0.0 2.0 0.00 0.00 0.00 94 1016.4
20260903114046 76 0 0.0 0.0 0.00 0.00 0.00 95 1016.4
20260903113925 76 0 0.0 0.0 0.00 0.00 0.00 95 1016.4
20260903113526 75 0 0.0 0.0 0.00 0.00 0.00 95 1016.4
20260903113407 75 0 0.0 0.0 0.00 0.00 0.00 95 1016.4
20260903112748 75 0 0.0 0.0 0.00 0.00 0.00 96 1016.3
20260903112501 74 0 0.0 0.0 0.00 0.00 0.00 96 1016.2
20260903112339 74 0 0.0 0.0 0.00 0.00 0.00 96 1016.2
20260903111717 74 0 0.0 0.0 0.00 0.00 0.00 96 1016.1
20260903111203 74 0 0.0 0.0 0.00 0.00 0.00 96 1016.1
20260903110645 74 0 0.0 0.0 0.00 0.00 0.00 96 1016.1
20260903110144 74 0 0.0 0.0 0.00 0.00 0.00 95 1016.1
20260903105906 74 0 0.0 0.0 0.00 0.00 0.00 96 1016.1
20260903105749 74 0 0.0 0.0 0.00 0.00 0.00 96 1016.1
20260903105352 74 0 0.0 0.0 0.00 0.00 0.00 95 1016.1
20260903105233 74 0 0.0 0.0 0.00 0.00 0.00 95 1016.1
20260903104630 74 0 0.0 0.0 0.00 0.00 0.00 95 1016.1
20260903104132 74 0 0.0 0.0 0.00 0.00 0.00 95 1016.0
20260903103842 74 0 0.0 1.0 0.00 0.00 0.00 95 1015.9
20260903103722 74 0 0.0 1.0 0.00 0.00 0.00 95 1015.9
20260903103327 74 0 0.0 1.0 0.00 0.00 0.00 95 1015.9
20260903103206 74 0 0.0 1.0 0.00 0.00 0.00 95 1015.9
20260903102551 74 0 0.0 0.0 0.00 0.00 0.00 95 1015.9
20260903102031 74 0 0.0 0.0 0.00 0.00 0.00 95 1015.9
20260903101517 74 0 0.0 0.0 0.00 0.00 0.00 95 1015.9
20260903101228 74 0 0.0 0.0 0.00 0.00 0.00 95 1015.9
20260903101109 74 0 0.0 0.0 0.00 0.00 0.00 95 1015.9
20260903100449 74 0 0.0 0.0 0.00 0.00 0.00 95 1015.8
20260903095931 75 0 0.0 1.0 0.00 0.00 0.00 95 1015.8
20260903095431 75 105 0.0 1.0 0.00 0.00 0.00 95 1015.7
20260903094929 75 0 0.0 1.0 0.00 0.00 0.00 95 1015.7
20260903094419 75 215 0.0 2.0 0.00 0.00 0.00 95 1015.7
20260903093903 75 145 0.0 2.0 0.00 0.00 0.00 95 1015.7
20260903093611 75 168 0.0 2.0 0.00 0.00 0.00 95 1015.7
20260903093457 75 168 0.0 2.0 0.00 0.00 0.00 95 1015.7
20260903093055 74 0 0.0 2.0 0.00 0.00 0.00 95 1015.7
20260903092940 74 0 0.0 2.0 0.00 0.00 0.00 95 1015.7
20260903092318 74 0 0.0 0.0 0.00 0.00 0.00 95 1015.6
20260903091807 74 0 0.0 0.0 0.00 0.00 0.00 95 1015.6
20260903091734 74 0 0.0 1.0 0.00 0.00 0.00 95 1015.6
20260903091353 74 0 0.0 1.0 0.00 0.00 0.00 95 1015.6
20260903090732 74 0 0.0 1.0 0.00 0.00 0.00 95 1015.6
20260903090231 74 0 0.0 1.0 0.00 0.00 0.00 94 1015.6
20260903085938 74 0 0.0 0.0 0.00 0.00 0.00 94 1015.6
20260903085823 74 0 0.0 0.0 0.00 0.00 0.00 94 1015.6
20260903085209 74 0 0.0 0.0 0.00 0.00 0.00 95 1015.6
20260903085112 75 0 0.0 0.0 0.00 0.00 0.00 94 1015.4
20260903085030 74 0 0.0 0.0 0.00 0.00 0.00 94 1015.6
20260903084940 74 0 0.0 0.0 0.00 0.00 0.00 94 1015.5
20260903084851 75 0 0.0 0.0 0.00 0.00 0.00 94 1015.5
20260903083131 75 0 0.0 0.0 0.00 0.00 0.00 94 1015.4
20260903082632 75 0 0.0 1.0 0.00 0.00 0.00 95 1015.4
20260903082131 75 0 0.0 1.0 0.00 0.00 0.00 94 1015.4
20260903081620 75 0 0.0 1.0 0.00 0.00 0.00 95 1015.3
20260903081106 76 196 0.0 2.0 0.00 0.00 0.00 95 1015.4
20260903080553 76 0 1.0 3.0 0.00 0.00 0.00 95 1015.3
20260903080034 75 183 1.0 3.0 0.00 0.00 0.00 95 1015.2
20260903075521 75 149 0.0 2.0 0.00 0.00 0.00 95 1015.2
20260903075007 75 203 0.0 2.0 0.00 0.00 0.00 95 1015.3
20260903074449 75 0 0.0 2.0 0.00 0.00 0.00 95 1015.3
20260903074200 75 153 1.0 2.0 0.00 0.00 0.00 95 1015.1
20260903074039 75 153 1.0 2.0 0.00 0.00 0.00 95 1015.1
20260903073431 75 0 1.0 2.0 0.00 0.00 0.00 94 1015.2
20260903072932 75 182 0.0 2.0 0.00 0.00 0.00 94 1015.1
20260903072437 75 0 0.0 2.0 0.00 0.00 0.00 94 1015.2
20260903072156 75 188 0.0 2.0 0.00 0.00 0.00 94 1015.2
20260903072037 75 188 0.0 2.0 0.00 0.00 0.00 94 1015.2
20260903071646 74 0 0.0 0.0 0.00 0.00 0.00 94 1015.2
20260903071528 74 0 0.0 0.0 0.00 0.00 0.00 94 1015.2
20260903070906 75 0 0.0 0.0 0.00 0.00 0.00 94 1015.1
20260903070351 75 0 0.0 1.0 0.00 0.00 0.00 94 1015.2
20260903065840 75 163 0.0 2.0 0.00 0.00 0.00 94 1015.2
20260903065320 74 0 1.0 2.0 0.00 0.00 0.00 94 1015.2
20260903064804 74 0 0.0 2.0 0.00 0.00 0.00 94 1015.2
20260903064254 74 260 0.0 0.0 0.00 0.00 0.00 93 1015.2
20260903063735 74 0 0.0 0.0 0.00 0.00 0.00 93 1015.3
20260903063220 74 0 0.0 1.0 0.00 0.00 0.00 93 1015.2
20260903062710 74 0 0.0 1.0 0.00 0.00 0.00 93 1015.2
20260903062150 74 0 0.0 0.0 0.00 0.00 0.00 93 1015.3
20260903062121 74 0 0.0 0.0 0.00 0.00 0.00 93 1015.3
20260903061740 74 0 0.0 0.0 0.00 0.00 0.00 93 1015.3
20260903061147 74 0 0.0 0.0 0.00 0.00 0.00 93 1015.4
20260903060624 74 0 0.0 1.0 0.00 0.00 0.00 93 1015.4
20260903060121 74 0 0.0 1.0 0.00 0.00 0.00 93 1015.5
20260903055622 75 0 0.0 1.0 0.00 0.00 0.00 93 1015.4
20260903055117 75 183 0.0 1.0 0.00 0.00 0.00 93 1015.5
20260903054627 75 0 0.0 0.0 0.00 0.00 0.00 93 1015.6
20260903054114 75 0 0.0 0.0 0.00 0.00 0.00 93 1015.7
20260903053612 75 0 0.0 0.0 0.00 0.00 0.00 92 1015.6
20260903053111 75 0 0.0 2.0 0.00 0.00 0.00 92 1015.6
20260903052608 75 0 0.0 2.0 0.00 0.00 0.00 92 1015.6
20260903052108 75 137 0.0 1.0 0.00 0.00 0.00 92 1015.5
20260903051606 75 0 0.0 1.0 0.00 0.00 0.00 92 1015.7
20260903051107 75 0 0.0 1.0 0.00 0.00 0.00 92 1015.7
20260903050605 75 0 0.0 1.0 0.00 0.00 0.00 92 1015.7
20260903050114 75 0 0.0 0.0 0.00 0.00 0.00 91 1015.7
20260903045602 75 0 0.0 1.0 0.00 0.00 0.00 91 1015.7
20260903045103 75 0 0.0 1.0 0.00 0.00 0.00 91 1015.7
20260903044600 75 0 0.0 0.0 0.00 0.00 0.00 91 1015.6
20260903044058 75 0 0.0 2.0 0.00 0.00 0.00 91 1015.7
20260903043556 76 155 0.0 2.0 0.00 0.00 0.00 91 1015.7
20260903043321 76 0 0.0 1.0 0.00 0.00 0.00 91 1015.7
20260903043200 76 0 0.0 1.0 0.00 0.00 0.00 91 1015.7
20260903042818 76 0 0.0 1.0 0.00 0.00 0.00 91 1015.7
20260903042658 76 0 0.0 1.0 0.00 0.00 0.00 91 1015.7
20260903042319 76 0 0.0 0.0 0.00 0.00 0.00 91 1015.8
20260903042200 76 0 0.0 0.0 0.00 0.00 0.00 91 1015.8
20260903041550 76 0 0.0 1.0 0.00 0.00 0.00 90 1015.7
20260903041050 76 0 0.0 1.0 0.00 0.00 0.00 90 1015.7
20260903040811 76 0 0.0 1.0 0.00 0.00 0.00 90 1015.9
20260903040654 76 0 0.0 1.0 0.00 0.00 0.00 90 1015.9
20260903040059 76 0 0.0 1.0 0.00 0.00 0.00 90 1015.9
20260903035548 76 0 0.0 1.0 0.00 0.00 0.00 90 1015.8
20260903035044 76 194 0.0 1.0 0.00 0.00 0.00 90 1015.7